Location: Forst
(46.9333°N, 15.4333°E)
Time: 15:08:15
(UTC+00:00)

FengYun 1-2 T - Pass Details

Date: 01 December 2020
Orbit: 847 x 880 km, 98.7° (Epoch: 28 January)

Event Time Altitude Azimuth Distance (km) Brightness Sun altitude
Rises 16:48:07 0° 170° (S) 3,422 7.4 -15.9°
Reaches altitude 10° 16:50:30 10° 172° (S) 2,485 6.7 -16.3°
Maximum altitude 16:56:00 71° 257° (WSW) 901 4.5 -17.2°
Drops below altitude 10° 17:01:30 10° 342° (NNW) 2,486 6.7 -18.2°
Sets 17:03:54 0° 344° (NNW) 3,424 7.4 -18.5°
